Weather in Shebalino

Russia / Volgograd Oblast     48°16′32″N   43°21′11″E
temp.,
°C
wind,
m/s
gust,
m/s
humid.,
%
clouds,
%
prec.,
mm/h
press.,
hPa
HPBL,
m
24 january, mon
mon2400:00−4ene71391100 0.0 1018383
03:00−5ene71393100 0.0 1019419
06:00−7ene61293100 0.1 1020333
09:00−6ene6119591 0.3 1021342
12:00−4ene699396 0.1 1022400
15:00−2ene5895100 0.2 1022454
18:00−3ene4996100 0.1 1023329
21:00−3ene4897100 1.8 1023322
25 january, tue
tue2500:00−3ene479693 1.1 1023250
03:00−7e229798 1.1 102331
06:00−7ese229889 0.2 102317
09:00−8se229772 0.2 102415
12:00−2wsw2293100 0.1 1024190
15:00−1sw2393100 0.1 1024251
18:00−4ssw2299100 0.0 102312
21:00−2sw3597100 0.0 1023154
26 january, wed
wed2600:00−2ssw3694100 0.0 1022113
03:00−8sw339990 0.0 102233
06:00−7sw35100100 0.0 1022131
09:00−6wsw3499100 0.1 1022231
12:00−4wsw2396100 0.1 1022364
15:00−3nw1289100 0.1 1022417
18:00−3e2291100 0.0 102233
21:00−4e2292100 0.0 102367
27 january, thu
thu2700:00−4e2394100 0.0 102393
03:00−5ene3495100 0.0 102284
06:00−5e3595100 0.0 1021131
09:00−4e3597100 0.9 1021226
12:00−2e3491100 0.6 1020401
15:00−2e3387100 0.6 1020457
18:00−4e2497100 0.1 102098
21:00−6ese239683 0.5 102034
28 january, fri
fri2800:00−8se229870 0.0 102014
03:00−13se2210098 0.1 10209
06:00−10sse229786 0.1 102030
09:00−7sw479675 0.3 1020189
12:00−7wsw469478 0.0 1020234
15:00−5sw47925 0.0 1019261
18:00−5s51195100 0.0 1018213
21:00−2ssw7149498 0.0 1017396